^^
Atglen Borough Weather Station Historical Data
 
Daily Summary for November 16, 2018 Units:  English    Metric   Both
Daily Weekly Monthly Yearly Custom
  Current: High: Low: Average:
Temperature: 36.0 °F 36.1 °F 34.9 °F 35.7 °F
Dew Point: 34.9 °F 35.1 °F 33.8 °F 34.7 °F
Humidity: 96% 96% 96% 96%
Wind Speed: 2.0mph 8.9mph 0.0mph 3mph
Wind Gust: 6.0mph 17.0mph - -
WindNNW - - SSE
Pressure: 29.55 in 29.60 in 29.54 in -
Precipitation: 0.00 in      
Historical Graphs
 
 
Tabular Data for November 16, 2018
Time Temperature Dew Point Pressure Wind Wind Speed Wind Gust Humidity Rainfall Rate (Hourly)
00:04 34.9 °F 33.8 °F 29.60 in NE 2.9 mph 13.0 mph 96% 0.00 in
00:09 35.1 °F 34.0 °F 29.59 in SSE 6.9 mph 15.0 mph 96% 0.00 in
00:14 35.1 °F 34.0 °F 29.59 in NE 4.0 mph 17.0 mph 96% 0.00 in
00:19 35.2 °F 34.2 °F 29.59 in ESE 2.9 mph 11.0 mph 96% 0.00 in
00:24 35.2 °F 34.2 °F 29.59 in East 4.0 mph 16.0 mph 96% 0.00 in
00:29 35.2 °F 34.2 °F 29.59 in ESE 6.0 mph 12.0 mph 96% 0.00 in
00:34 35.4 °F 34.3 °F 29.60 in ESE 2.9 mph 12.0 mph 96% 0.00 in
00:39 35.4 °F 34.3 °F 29.60 in Calm   5.0 mph 96% 0.00 in
00:44 35.6 °F 34.5 °F 29.60 in SE 4.0 mph 8.0 mph 96% 0.00 in
00:49 35.6 °F 34.5 °F 29.60 in SW 2.0 mph 4.0 mph 96% 0.00 in
00:54 35.8 °F 34.7 °F 29.60 in North 0.9 mph 4.0 mph 96% 0.00 in
00:59 35.8 °F 34.7 °F 29.59 in North 4.0 mph 7.0 mph 96% 0.00 in
01:04 35.8 °F 34.7 °F 29.59 in ENE 0.9 mph 6.0 mph 96% 0.00 in
01:09 36.0 °F 34.9 °F 29.59 in ENE 4.0 mph 7.0 mph 96% 0.00 in
01:14 36.0 °F 34.9 °F 29.58 in East 0.9 mph 4.0 mph 96% 0.00 in
01:19 36.0 °F 34.9 °F 29.58 in NW 0.9 mph 9.0 mph 96% 0.00 in
01:24 36.0 °F 34.9 °F 29.57 in ENE 2.0 mph 8.0 mph 96% 0.00 in
01:29 36.0 °F 34.9 °F 29.57 in NNE 8.9 mph 13.0 mph 96% 0.00 in
01:34 36.0 °F 34.9 °F 29.56 in NE 4.0 mph 13.0 mph 96% 0.00 in
01:39 36.0 °F 34.9 °F 29.55 in NE 4.0 mph 10.0 mph 96% 0.00 in
01:44 36.0 °F 34.9 °F 29.55 in East 2.9 mph 10.0 mph 96% 0.00 in
01:49 36.0 °F 34.9 °F 29.55 in ENE 2.0 mph 4.0 mph 96% 0.00 in
01:54 36.0 °F 34.9 °F 29.55 in ESE 0.9 mph 10.0 mph 96% 0.00 in
01:59 36.1 °F 35.1 °F 29.54 in SW 2.0 mph 5.0 mph 96% 0.00 in
02:04 36.0 °F 34.9 °F 29.54 in ENE 4.0 mph 9.0 mph 96% 0.00 in
02:09 36.1 °F 35.1 °F 29.54 in NW 0.9 mph 4.0 mph 96% 0.00 in
02:14 36.1 °F 35.1 °F 29.54 in North 2.0 mph 5.0 mph 96% 0.00 in
02:19 36.1 °F 35.1 °F 29.54 in NNW 2.9 mph 4.0 mph 96% 0.00 in
02:24 36.0 °F 34.9 °F 29.55 in NNW 2.0 mph 6.0 mph 96% 0.00 in
Atglen Borough, Pennsylvania, USA
Compliments of Weather Underground - 2 mb